Погода Новый Торьял

Погода Новый Торьял : погода сейчас, прогноз погоды и архив. Всё, что Вы хотите узнать о погоде Новый Торьял!

Поиск расширенной информации на нашем сайте:

Другие новости

Новости СМИ2

Главная страница сайта

Новости сайта

03.07.2017

Напоминаем, что на нашем специализированном сайте Метеоцентр.Азия вы можете получить высокодетализированные автоматические прогнозы погоды по пунктам России, СНГ и мира в авиационном формате (включающие направление и скорость ветра, видимость, явления погоды, количество и форму облачности, нижнюю и верхнюю границу облачности).


Погода Новый Торьял - сегодня

Время (UTC), дата Ветер
(°,м/с) 
Видим.   Явления Облачность Т
(°С)
Тd
(°С)
f(%) Тe
(°С)
Pmin
(гПа)
dP
(гПа)
Po
(мм)
O2
(г/м3)
Тmin Tmax R s Состояние
почвы
15 11.07.18 020 (С) 4-7{07}  20000 м    4/4 300 м 
[Cu med, cong]
+22.7 +12.5 53 +27  1010.8  0.3  746  275    +24.2       
03 12.07.18 350 (С) 2-2{02}  20000 м    10/10 300 м кучево-дожд. 
[Cb calv]
+16 +14.2 89 +24  1011.7  -0.3  746  281  +15.5        влажная 
15 12.07.18 тихо () -0{03}  20000 м    8/8 300 м кучево-дожд. 
[Cb calv]
+21 +14.9 68 +30  1010.2  -0.7  745  276    +21.7     
03 13.07.18 тихо () -0{01}  20000 м    10/10 300 м кучево-дожд. 
[Cb calv]
+15.5 +15 97 +24  1010  745  281  +13.8        влажная 
15 13.07.18 270 (З) 1-2{04}  20000 м  гроза без осадков{ливн. осадки}  10/8 300 м кучево-дожд., средняя, верхняя 
[Cb cap|Ac trans|Ci sp]
+20.4 +19 92 +37  1009.2  -0.2  744  275    +24.8  13     
03 14.07.18 тихо () -0{02}  0500 м  туман  ?/?  
+15.4 +14.9 97 +24  1010.5  0.7  745  281  +12.8      влажная 
15 14.07.18 тихо () -0{04}  20000 м    10/4 600 м средняя, верхняя 
[Cu med, cong|Ac trans|Ci sp]
+26 +18.8 65 +42  1008.1  744  269    +27       
03 15.07.18 320 (СЗ) 1-1{02}  4400 м  дымка{туман}  10/10 300 м 
[St]
+17.4 +16.9 97 +31  1010.2  0.3  745  278  +15.8    0.0    влажная 
15 15.07.18 тихо () -0{02}  20000 м    10/3 600 м кучево-дожд., средняя, верхняя 
[Cb calv|Ac trans|Ci sp]
+26.7 +20.5 69 +47  1009.5  745  268    +27.9       
03 16.07.18 тихо () -0{02}  6000 м  дымка  10/4 300 м кучево-дожд., средняя, верхняя 
[Cb calv|Ac trans|Ci sp]
+19.1 +18.1 94 +34  1011.6  0.5  746  277  +18.4        влажная 
15 16.07.18 тихо () -0{10}  17000 м  гроза, ливневой дождь  10/10 300 м кучево-дожд. 
[Cb cap]
+19.1 +18.4 96 +34  1010.8  746  276    +29  10     
03 17.07.18 тихо () -0{02}  7000 м  дымка  8/5 300 м средняя 
[Frnb|Ac trans]
+18.9 +18.3 96 +34  1010  0.1  745  276  +18    0.3    влажная 
15 17.07.18 020 (С) 2-6{06}  20000 м  {ливн. осадки}  10/4 300 м средняя, верхняя 
[Cu med, cong|Ac trans|Ci sp]
+24.8 +19 70 +42  1007.9  -0.3  744  270    +28.4  0.6     
03 18.07.18 070 (В) 1-2{05}  11000 м  слаб. ливневой дождь  10/10 300 м кучево-дожд. 
[Cb cap]
+18.8 +17.7 93 +34  1007.5  743  276  +18.3      влажная 
15 18.07.18 040 (СВ) 1-3{07}  20000 м  в посл. час ливневой дождь  10/8 300 м кучево-дожд., средняя, верхняя 
[Cb cap|Ac trans|Ci sp]
+22.1 +19.7 86 +40  1005.8  -0.4  742  272    +24.9  0.7     
03 19.07.18 тихо () -0{03}  20000 м  в посл. час ливневой дождь  10/10 300 м кучево-дожд. 
[Cb cap]
+18.7 +18.1 96 +34  1006  -0.1  742  276  +18.6    0.9    влажная 
15 19.07.18 120 (ЮВ) 2-4{07}  20000 м  {ливн. осадки}  10/10 300 м кучево-дожд. 
[Cb calv]
+19.9 +17.1 84 +34  1008.7  0.9  744  276    +23.3     
03 20.07.18 тихо () -0{03}  5000 м  дымка  10/10 300 м 
[St]
+18.4 +17.4 94 +32  1011.9  0.6  746  278  +18    0.3    влажная 
15 20.07.18 090 (В) 1-4{05}  20000 м    10/6 300 м кучево-дожд., верхняя 
[Cb calv|Ci sp]
+23 +17 69 +35  1012.4  -0.4  747  274    +24.6       
03 21.07.18 090 (В) 1-5{05}  20000 м    6/3 300 м средняя, верхняя 
[Cu Sc|Ac trans|Cc]
+18.1 +15.1 83 +29  1013.9  0.8  748  279  +17.3        влажная 
15 21.07.18 100 (В) 1-4{09}  20000 м    8/0 средняя 
[Ac trans]
+22.4 +14 59 +29  1014.2  -0.2  748  276    +24.8       
03 22.07.18 100 (В) 1-3{04}  20000 м    ясно 
+14.8 +11.2 79 +19  1017.3  0.7  750  285  +12.5        влажная 
06 22.07.18 110 (В) 3-9{09}  20000 м    ясно 
+20.1 +10.5 54 +22  1016.9  750  280           
18 22.07.18 100 (В) 1-2{05}  20000 м    ясно 
+16 +10.2 68 +18  1017.9  0.8  751  284           
21 22.07.18 тихо () -0{02}  20000 м    ясно 
+12.2 +9 81 +12  1018.7  0.5  751  288           
Время (UTC), дата Ветер
(°,м/с) 
Видим.   Явления Облачность Т
(°С)
Тd
(°С)
f(%) Тe
(°С)
Pmin
(гПа)
dP
(гПа)
Po
(мм)
O2
(г/м3)
Тmin Tmax R s Состояние
почвы

Для получения пояснительной информации подведите курсор к названию столбца.

ПОГОДА Новый Торьял - архив

Всё, что Вы хотите узнать о погоде Новый Торьял - удобно и подробно!

Выберите нужную дату (начиная с 1 января 2015* года) и нажмите кнопку "Найти".
Будут отображены архивные сводки погоды по пункту Новый Торьял, начиная с указанной даты.


Отображать данные в формате CSV (для использования в таблицах Excel)


Внимание! Наш архив погоды предназначен исключительно для личного некоммерческого использования в познавательных целях. Если Вам необходимы официальные справки о состоянии погоды (для производственных, юридических, коммерческих и т.п. целей), обращайтесь в органы Росгидромета.

*Примечание: данная дата относится к архиву по метеостанциям СССР (Россия, СНГ, Балтия).
Архив по метеостанциям Зарубежной Европы и Азии (кроме Китая) хранится 10 дней, по другим регионам земного шара (Китай, Африка, Америка, Австралия, Океания) - 1 день.

Новый Торьял - район местоположения метеостанции


Название, широта, долгота, высота метеостанции:
Новый Торьял 57°ш. 48.7°д. 143 м над ур. моря [Российская Федерация]

Дополнительная информация

В oтличие oт бoльшинства пoгoдных сайтoв мы публикуем пoдрoбную метеoинфoрмацию в детальнoм прoфессиoнальнoм фoрмате.

Характеристики температуры и влажнoсти вoздуха измеряются на высoте 2 м в тени вдали oт зданий и деревьев.
Скoрoсть ветра измеряется на высoте 10 м (на урoвне рoста челoвека скoрoсть ветра ниже в 1.5-2 раза). Если метеoстанция нахoдится в гoрoде или в лесу, тo скoрoсть ветра занижена на 2-4 м/с пo сравнению с oткрытым местoм. Скoрoсть ветра над акватoриями крупных рек и oзёр, а также на вершинах хoлмoв на 2-5 м/с выше, чем в oбычных услoвиях.
Атмoсфернoе давление в разных тoчках местнoсти мoжет значительнo oтличаться oт давления на метеoстанции, в зависимoсти oт услoвий рельефа (при пoдъёме на 10 м давление пoнижается примернo на 1 мм рт.ст.).